Time,TemperatureF,DewpointF,PressureIn,WindDirection,WindDirectionDegrees,WindSpeedMPH,WindSpeedGustMPH,Humidity,HourlyPrecipIn,Conditions,Clouds,dailyrainin,SoftwareType,DateUTC
2013-03-31 00:01:00,44.0,26.0,-100.00,NE,35,2.0,4.0,47,0.00,,,-99.99,,2013-03-31 06:01:00,
2013-03-31 00:11:00,44.0,26.0,-100.00,SSE,165,0.0,2.0,47,0.00,,,-99.99,,2013-03-31 06:11:00,
2013-03-31 00:22:00,44.0,26.0,-100.00,North,0,2.0,4.0,48,0.00,,,-99.99,,2013-03-31 06:22:00,
2013-03-31 00:32:00,44.0,26.0,-100.00,NE,40,3.0,4.0,49,0.00,,,-99.99,,2013-03-31 06:32:00,
2013-03-31 00:42:00,44.0,26.0,-100.00,North,10,1.0,5.0,49,0.00,,,-99.99,,2013-03-31 06:42:00,
2013-03-31 00:52:00,44.0,26.0,-100.00,NE,40,2.0,4.0,49,0.00,,,-99.99,,2013-03-31 06:52:00,
2013-03-31 01:01:00,43.0,26.0,-100.00,North,0,1.0,4.0,50,0.00,,,-99.99,,2013-03-31 07:01:00,
2013-03-31 01:12:00,44.0,26.0,-100.00,North,0,2.0,4.0,50,0.00,,,-99.99,,2013-03-31 07:12:00,
2013-03-31 01:22:00,43.0,26.0,-100.00,North,0,2.0,3.0,51,0.00,,,-99.99,,2013-03-31 07:22:00,
2013-03-31 01:32:00,42.0,26.0,-100.00,NNW,335,0.0,3.0,51,0.00,,,-99.99,,2013-03-31 07:32:00,
2013-03-31 01:42:00,42.0,26.0,-100.00,South,170,0.0,3.0,52,0.00,,,-99.99,,2013-03-31 07:42:00,
2013-03-31 01:53:00,40.0,26.0,-100.00,NNW,330,0.0,2.0,54,0.00,,,-99.99,,2013-03-31 07:53:00,
2013-03-31 02:01:00,40.0,26.0,-100.00,North,0,0.0,1.0,56,0.00,,,-99.99,,2013-03-31 08:01:00,
2013-03-31 02:12:00,39.0,26.0,-100.00,East,95,0.0,3.0,57,0.00,,,-99.99,,2013-03-31 08:12:00,
2013-03-31 02:22:00,39.0,26.0,-100.00,NE,45,0.0,1.0,58,0.00,,,-99.99,,2013-03-31 08:22:00,
2013-03-31 02:32:00,38.0,26.0,-100.00,NNE,30,0.0,2.0,60,0.00,,,-99.99,,2013-03-31 08:32:00,
2013-03-31 02:42:00,38.0,26.0,-100.00,SE,130,0.0,1.0,62,0.00,,,-99.99,,2013-03-31 08:42:00,
2013-03-31 02:52:00,37.0,26.0,-100.00,North,10,0.0,1.0,64,0.00,,,-99.99,,2013-03-31 08:52:00,
2013-03-31 03:01:00,37.0,27.0,-100.00,ENE,60,0.0,1.0,66,0.00,,,-99.99,,2013-03-31 09:01:00,
2013-03-31 03:12:00,37.0,27.0,-100.00,NNE,25,0.0,1.0,67,0.00,,,-99.99,,2013-03-31 09:12:00,
2013-03-31 03:21:00,36.0,27.0,-100.00,SE,140,0.0,1.0,69,0.00,,,-99.99,,2013-03-31 09:21:00,
2013-03-31 03:32:00,36.0,27.0,-100.00,SE,145,0.0,1.0,71,0.00,,,-99.99,,2013-03-31 09:32:00,
2013-03-31 03:42:00,35.0,27.0,-100.00,SE,145,0.0,0.0,72,0.00,,,-99.99,,2013-03-31 09:42:00,
2013-03-31 03:53:00,35.0,28.0,-100.00,South,170,0.0,1.0,74,0.00,,,-99.99,,2013-03-31 09:53:00,
2013-03-31 04:03:00,35.0,28.0,-100.00,NE,55,0.0,1.0,75,0.00,,,-99.99,,2013-03-31 10:03:00,
2013-03-31 04:12:00,34.0,28.0,-100.00,SE,130,0.0,0.0,76,0.00,,,-99.99,,2013-03-31 10:12:00,
2013-03-31 04:23:00,34.0,28.0,-100.00,SE,130,0.0,1.0,77,0.00,,,-99.99,,2013-03-31 10:23:00,
2013-03-31 04:32:00,34.0,28.0,-100.00,ENE,70,0.0,2.0,78,0.00,,,-99.99,,2013-03-31 10:32:00,
2013-03-31 04:42:00,34.0,28.0,-100.00,SSE,165,0.0,0.0,79,0.00,,,-99.99,,2013-03-31 10:42:00,
2013-03-31 04:52:00,34.0,29.0,-100.00,South,185,0.0,1.0,80,0.00,,,-99.99,,2013-03-31 10:52:00,
2013-03-31 05:02:00,34.0,29.0,-100.00,SSW,210,0.0,4.0,81,0.00,,,-99.99,,2013-03-31 11:02:00,
2013-03-31 05:12:00,34.0,29.0,-100.00,East,100,1.0,3.0,82,0.00,,,-99.99,,2013-03-31 11:12:00,
2013-03-31 05:22:00,33.0,29.0,-100.00,NE,55,1.0,2.0,83,0.00,,,-99.99,,2013-03-31 11:22:00,
2013-03-31 05:32:00,33.0,29.0,-100.00,ESE,115,0.0,1.0,83,0.00,,,-99.99,,2013-03-31 11:32:00,
2013-03-31 05:42:00,33.0,29.0,-100.00,NE,55,1.0,2.0,83,0.00,,,-99.99,,2013-03-31 11:42:00,
2013-03-31 05:52:00,33.0,29.0,-100.00,SE,140,0.0,1.0,83,0.00,,,-99.99,,2013-03-31 11:52:00,
2013-03-31 06:02:00,33.0,28.0,-100.00,NW,305,1.0,2.0,83,0.00,,,-99.99,,2013-03-31 12:02:00,
2013-03-31 06:12:00,33.0,28.0,-100.00,WNW,300,0.0,1.0,83,0.00,,,-99.99,,2013-03-31 12:12:00,
2013-03-31 06:22:00,33.0,28.0,-100.00,SW,220,0.0,1.0,83,0.00,,,-99.99,,2013-03-31 12:22:00,
2013-03-31 06:32:00,32.0,28.0,-100.00,NNE,15,1.0,2.0,84,0.00,,,-99.99,,2013-03-31 12:32:00,
2013-03-31 06:42:00,32.0,28.0,-100.00,SW,220,1.0,2.0,85,0.00,,,-99.99,,2013-03-31 12:42:00,
2013-03-31 06:52:00,32.0,28.0,-100.00,West,265,0.0,2.0,85,0.00,,,-99.99,,2013-03-31 12:52:00,
2013-03-31 07:02:00,32.0,29.0,-100.00,WNW,295,0.0,1.0,86,0.00,,,-99.99,,2013-03-31 13:02:00,
2013-03-31 07:12:00,32.0,29.0,-100.00,ESE,120,0.0,2.0,87,0.00,,,-99.99,,2013-03-31 13:12:00,
2013-03-31 07:21:00,32.0,29.0,-100.00,South,175,0.0,4.0,87,0.00,,,-99.99,,2013-03-31 13:21:00,
2013-03-31 07:32:00,32.0,29.0,-100.00,SSE,160,1.0,3.0,87,0.00,,,-99.99,,2013-03-31 13:32:00,
2013-03-31 07:42:00,32.0,29.0,-100.00,NW,320,0.0,1.0,88,0.00,,,-99.99,,2013-03-31 13:42:00,
2013-03-31 07:52:00,32.0,29.0,-100.00,NNW,345,0.0,2.0,88,0.00,,,-99.99,,2013-03-31 13:52:00,
2013-03-31 08:02:00,33.0,31.0,-100.00,SE,125,0.0,1.0,89,0.00,,,-99.99,,2013-03-31 14:02:00,
2013-03-31 08:11:00,34.0,31.0,-100.00,South,175,0.0,2.0,89,0.00,,,-99.99,,2013-03-31 14:11:00,
2013-03-31 08:22:00,35.0,32.0,-100.00,SSE,150,0.0,2.0,87,0.00,,,-99.99,,2013-03-31 14:22:00,
2013-03-31 08:32:00,36.0,32.0,-100.00,South,175,0.0,2.0,84,0.00,,,-99.99,,2013-03-31 14:32:00,
2013-03-31 08:42:00,38.0,32.0,-100.00,South,190,1.0,3.0,80,0.00,,,-99.99,,2013-03-31 14:42:00,
2013-03-31 08:52:00,39.0,32.0,-100.00,SSE,165,1.0,3.0,76,0.00,,,-99.99,,2013-03-31 14:52:00,
2013-03-31 09:02:00,40.0,32.0,-100.00,ESE,115,0.0,3.0,71,0.00,,,-99.99,,2013-03-31 15:02:00,
2013-03-31 09:12:00,42.0,31.0,-100.00,SSE,160,1.0,2.0,64,0.00,,,-99.99,,2013-03-31 15:12:00,
2013-03-31 09:22:00,43.0,30.0,-100.00,SE,130,1.0,3.0,60,0.00,,,-99.99,,2013-03-31 15:22:00,
2013-03-31 09:33:00,43.0,30.0,-100.00,South,180,0.0,2.0,58,0.00,,,-99.99,,2013-03-31 15:33:00,
2013-03-31 09:43:00,45.0,29.0,-100.00,SW,220,1.0,3.0,54,0.00,,,-99.99,,2013-03-31 15:43:00,
2013-03-31 09:53:00,46.0,29.0,-100.00,South,190,2.0,4.0,51,0.00,,,-99.99,,2013-03-31 15:53:00,
2013-03-31 10:02:00,47.0,29.0,-100.00,SSE,165,1.0,3.0,47,0.00,,,-99.99,,2013-03-31 16:02:00,
2013-03-31 10:13:00,48.0,28.0,-100.00,South,175,1.0,2.0,45,0.00,,,-99.99,,2013-03-31 16:13:00,
2013-03-31 10:22:00,48.0,27.0,-100.00,South,185,1.0,3.0,43,0.00,,,-99.99,,2013-03-31 16:22:00,
2013-03-31 10:33:00,50.0,28.0,-100.00,South,180,2.0,4.0,41,0.00,,,-99.99,,2013-03-31 16:33:00,
2013-03-31 10:42:00,51.0,27.0,-100.00,South,180,2.0,3.0,40,0.00,,,-99.99,,2013-03-31 16:42:00,
2013-03-31 10:53:00,51.0,27.0,-100.00,South,170,2.0,4.0,38,0.00,,,-99.99,,2013-03-31 16:53:00,
2013-03-31 11:02:00,52.0,27.0,-100.00,South,185,2.0,4.0,38,0.00,,,-99.99,,2013-03-31 17:02:00,
2013-03-31 11:12:00,53.0,27.0,-100.00,SSE,160,2.0,4.0,36,0.00,,,-99.99,,2013-03-31 17:12:00,
2013-03-31 11:22:00,53.0,26.0,-100.00,South,190,2.0,4.0,34,0.00,,,-99.99,,2013-03-31 17:22:00,
2013-03-31 11:32:00,55.0,26.0,-100.00,SSE,160,2.0,4.0,32,0.00,,,-99.99,,2013-03-31 17:32:00,
2013-03-31 11:42:00,56.0,26.0,-100.00,SSE,155,3.0,6.0,30,0.00,,,-99.99,,2013-03-31 17:42:00,
2013-03-31 11:52:00,57.0,26.0,-100.00,SSE,165,2.0,4.0,30,0.00,,,-99.99,,2013-03-31 17:52:00,
2013-03-31 12:02:00,58.0,26.0,-100.00,SSE,165,2.0,4.0,29,0.00,,,-99.99,,2013-03-31 18:02:00,
2013-03-31 12:12:00,60.0,25.0,-100.00,SE,140,2.0,5.0,25,0.00,,,-99.99,,2013-03-31 18:12:00,
2013-03-31 12:22:00,62.0,26.0,-100.00,SSE,160,2.0,6.0,25,0.00,,,-99.99,,2013-03-31 18:22:00,
2013-03-31 12:32:00,62.0,25.0,-100.00,SE,145,4.0,7.0,23,0.00,,,-99.99,,2013-03-31 18:32:00,
2013-03-31 12:42:00,63.0,25.0,-100.00,SSE,155,6.0,10.0,23,0.00,,,-99.99,,2013-03-31 18:42:00,
2013-03-31 12:52:00,64.0,24.0,-100.00,SSE,150,4.0,10.0,21,0.00,,,-99.99,,2013-03-31 18:52:00,
2013-03-31 13:02:00,63.0,22.0,-100.00,SSE,165,7.0,11.0,20,0.00,,,-99.99,,2013-03-31 19:02:00,
2013-03-31 13:11:00,63.0,21.0,-100.00,South,175,3.0,12.0,19,0.00,,,-99.99,,2013-03-31 19:11:00,
2013-03-31 13:22:00,64.0,21.0,-100.00,SSE,150,6.0,10.0,19,0.00,,,-99.99,,2013-03-31 19:22:00,
2013-03-31 13:32:00,64.0,22.0,-100.00,SE,125,4.0,9.0,19,0.00,,,-99.99,,2013-03-31 19:32:00,
2013-03-31 13:42:00,63.0,20.0,-100.00,SE,135,7.0,22.0,18,0.00,,,-99.99,,2013-03-31 19:42:00,
2013-03-31 13:53:00,65.0,22.0,-100.00,SSE,155,2.0,9.0,18,0.00,,,-99.99,,2013-03-31 19:53:00,
2013-03-31 14:02:00,66.0,22.0,-100.00,SSE,160,4.0,11.0,18,0.00,,,-99.99,,2013-03-31 20:02:00,
2013-03-31 14:12:00,66.0,22.0,-100.00,SSE,150,4.0,9.0,18,0.00,,,-99.99,,2013-03-31 20:12:00,
2013-03-31 14:22:00,65.0,22.0,-100.00,East,90,3.0,10.0,18,0.00,,,-99.99,,2013-03-31 20:22:00,
2013-03-31 14:32:00,67.0,23.0,-100.00,NE,50,6.0,12.0,18,0.00,,,-99.99,,2013-03-31 20:32:00,
2013-03-31 14:42:00,66.0,22.0,-100.00,SE,140,6.0,11.0,18,0.00,,,-99.99,,2013-03-31 20:42:00,
2013-03-31 14:52:00,66.0,22.0,-100.00,North,350,1.0,12.0,18,0.00,,,-99.99,,2013-03-31 20:52:00,
2013-03-31 15:02:00,66.0,22.0,-100.00,SSW,195,2.0,9.0,18,0.00,,,-99.99,,2013-03-31 21:02:00,
2013-03-31 15:12:00,66.0,22.0,-100.00,South,180,3.0,10.0,18,0.00,,,-99.99,,2013-03-31 21:12:00,
2013-03-31 15:22:00,67.0,23.0,-100.00,ESE,120,2.0,9.0,18,0.00,,,-99.99,,2013-03-31 21:22:00,
2013-03-31 15:33:00,67.0,22.0,-100.00,SSE,155,4.0,9.0,18,0.00,,,-99.99,,2013-03-31 21:33:00,
2013-03-31 15:43:00,67.0,22.0,-100.00,South,170,3.0,10.0,17,0.00,,,-99.99,,2013-03-31 21:43:00,
2013-03-31 15:53:00,67.0,22.0,-100.00,SE,135,4.0,11.0,17,0.00,,,-99.99,,2013-03-31 21:53:00,
2013-03-31 16:02:00,66.0,21.0,-100.00,South,180,4.0,10.0,18,0.00,,,-99.99,,2013-03-31 22:02:00,
2013-03-31 16:12:00,67.0,22.0,-100.00,SSE,150,5.0,11.0,17,0.00,,,-99.99,,2013-03-31 22:12:00,
2013-03-31 16:23:00,67.0,20.0,-100.00,South,180,4.0,9.0,16,0.00,,,-99.99,,2013-03-31 22:23:00,
2013-03-31 16:33:00,67.0,20.0,-100.00,SE,140,2.0,9.0,16,0.00,,,-99.99,,2013-03-31 22:33:00,
2013-03-31 16:42:00,67.0,19.0,-100.00,WSW,245,2.0,10.0,16,0.00,,,-99.99,,2013-03-31 22:42:00,
2013-03-31 16:52:00,65.0,18.0,-100.00,SSE,160,6.0,13.0,16,0.00,,,-99.99,,2013-03-31 22:52:00,
2013-03-31 17:02:00,64.0,18.0,-100.00,SSE,155,2.0,7.0,16,0.00,,,-99.99,,2013-03-31 23:02:00,
2013-03-31 17:12:00,63.0,17.0,-100.00,SSE,160,3.0,9.0,16,0.00,,,-99.99,,2013-03-31 23:12:00,
2013-03-31 17:22:00,63.0,17.0,-100.00,South,170,6.0,11.0,16,0.00,,,-99.99,,2013-03-31 23:22:00,
2013-03-31 17:32:00,63.0,18.0,-100.00,SE,135,1.0,7.0,17,0.00,,,-99.99,,2013-03-31 23:32:00,
2013-03-31 17:42:00,63.0,18.0,-100.00,ESE,120,4.0,12.0,17,0.00,,,-99.99,,2013-03-31 23:42:00,
2013-03-31 17:52:00,62.0,17.0,-100.00,SSE,165,2.0,6.0,17,0.00,,,-99.99,,2013-03-31 23:52:00,
2013-03-31 18:02:00,62.0,17.0,-100.00,SSE,150,1.0,9.0,17,0.00,,,-99.99,,2013-04-01 00:02:00,
2013-03-31 18:11:00,62.0,18.0,-100.00,WNW,295,2.0,8.0,17,0.00,,,-99.99,,2013-04-01 00:11:00,
2013-03-31 18:21:00,62.0,18.0,-100.00,SE,140,1.0,4.0,18,0.00,,,-99.99,,2013-04-01 00:21:00,
2013-03-31 18:32:00,61.0,17.0,-100.00,ESE,115,1.0,5.0,18,0.00,,,-99.99,,2013-04-01 00:32:00,
2013-03-31 18:42:00,61.0,17.0,-100.00,SSW,205,1.0,3.0,17,0.00,,,-99.99,,2013-04-01 00:42:00,
2013-03-31 18:52:00,60.0,18.0,-100.00,SE,145,3.0,7.0,18,0.00,,,-99.99,,2013-04-01 00:52:00,
2013-03-31 19:02:00,60.0,18.0,-100.00,SSW,210,2.0,7.0,18,0.00,,,-99.99,,2013-04-01 01:02:00,
2013-03-31 19:12:00,60.0,18.0,-100.00,West,280,1.0,4.0,19,0.00,,,-99.99,,2013-04-01 01:12:00,
2013-03-31 19:22:00,59.0,18.0,-100.00,North,10,1.0,4.0,19,0.00,,,-99.99,,2013-04-01 01:22:00,
2013-03-31 19:32:00,58.0,18.0,-100.00,North,10,3.0,5.0,20,0.00,,,-99.99,,2013-04-01 01:32:00,
2013-03-31 19:42:00,57.0,18.0,-100.00,North,0,2.0,6.0,21,0.00,,,-99.99,,2013-04-01 01:42:00,
2013-03-31 19:52:00,56.0,17.0,-100.00,SSE,155,0.0,4.0,21,0.00,,,-99.99,,2013-04-01 01:52:00,
2013-03-31 20:02:00,55.0,18.0,-100.00,SSE,155,1.0,3.0,22,0.00,,,-99.99,,2013-04-01 02:02:00,
2013-03-31 20:12:00,55.0,18.0,-100.00,SSE,165,0.0,3.0,23,0.00,,,-99.99,,2013-04-01 02:12:00,
2013-03-31 20:22:00,53.0,18.0,-100.00,SE,130,0.0,2.0,24,0.00,,,-99.99,,2013-04-01 02:22:00,
2013-03-31 20:32:00,52.0,19.0,-100.00,NNW,330,2.0,4.0,26,0.00,,,-99.99,,2013-04-01 02:32:00,
2013-03-31 20:42:00,51.0,19.0,-100.00,East,80,0.0,4.0,27,0.00,,,-99.99,,2013-04-01 02:42:00,
2013-03-31 20:53:00,50.0,19.0,-100.00,SE,145,1.0,4.0,29,0.00,,,-99.99,,2013-04-01 02:53:00,
2013-03-31 21:02:00,49.0,20.0,-100.00,NE,35,1.0,4.0,30,0.00,,,-99.99,,2013-04-01 03:02:00,
2013-03-31 21:12:00,49.0,20.0,-100.00,SW,215,0.0,5.0,32,0.00,,,-99.99,,2013-04-01 03:12:00,
2013-03-31 21:22:00,47.0,20.0,-100.00,ENE,70,0.0,1.0,33,0.00,,,-99.99,,2013-04-01 03:22:00,
2013-03-31 21:33:00,47.0,21.0,-100.00,South,170,0.0,1.0,35,0.00,,,-99.99,,2013-04-01 03:33:00,
2013-03-31 21:43:00,46.0,22.0,-100.00,NNW,340,0.0,4.0,37,0.00,,,-99.99,,2013-04-01 03:43:00,
2013-03-31 21:52:00,45.0,22.0,-100.00,SE,125,0.0,1.0,38,0.00,,,-99.99,,2013-04-01 03:52:00,
2013-03-31 22:02:00,44.0,21.0,-100.00,ENE,75,0.0,0.0,39,0.00,,,-99.99,,2013-04-01 04:02:00,
2013-03-31 22:13:00,44.0,22.0,-100.00,West,260,1.0,2.0,41,0.00,,,-99.99,,2013-04-01 04:13:00,
2013-03-31 22:23:00,43.0,23.0,-100.00,ESE,115,0.0,2.0,44,0.00,,,-99.99,,2013-04-01 04:23:00,
2013-03-31 22:32:00,43.0,23.0,-100.00,East,80,0.0,2.0,45,0.00,,,-99.99,,2013-04-01 04:32:00,
2013-03-31 22:43:00,43.0,24.0,-100.00,SE,125,0.0,2.0,45,0.00,,,-99.99,,2013-04-01 04:43:00,
2013-03-31 22:52:00,42.0,24.0,-100.00,ENE,60,0.0,3.0,47,0.00,,,-99.99,,2013-04-01 04:52:00,
2013-03-31 23:02:00,42.0,24.0,-100.00,SSW,195,0.0,2.0,47,0.00,,,-99.99,,2013-04-01 05:02:00,
2013-03-31 23:12:00,42.0,24.0,-100.00,NNW,345,0.0,3.0,49,0.00,,,-99.99,,2013-04-01 05:12:00,
2013-03-31 23:21:00,41.0,24.0,-100.00,ENE,75,0.0,1.0,50,0.00,,,-99.99,,2013-04-01 05:21:00,
2013-03-31 23:32:00,41.0,24.0,-100.00,East,90,0.0,1.0,51,0.00,,,-99.99,,2013-04-01 05:32:00,
2013-03-31 23:42:00,40.0,24.0,-100.00,ESE,120,0.0,1.0,52,0.00,,,-99.99,,2013-04-01 05:42:00,
2013-03-31 23:52:00,40.0,24.0,-100.00,NE,35,0.0,2.0,53,0.00,,,-99.99,,2013-04-01 05:52:00,